Location: Campestrin
(46.4667°N, 11.7167°E)
Time: 10:30:51
(UTC+00:00)

USA 245 - Pass Details

Date: 18 April 2021
Orbit: 268 x 984 km, 97.9° (Epoch: 02 May)

Event Time Altitude Azimuth Distance (km) Brightness Sun altitude
Exits shadow 20:24:20 63° 187° (S) 607 3.3 -21.2°
Maximum altitude 20:24:53 80° 255° (WSW) 544 3.2 -21.3°
Drops below altitude 10° 20:28:19 10° 344° (NNW) 1,602 6.5 -21.7°
Sets 20:30:08 0° 346° (NNW) 2,378 7.6 -21.9°
